Theta_e
327 327 328 329 330 333 337 337 334 334 332 329 328 328 327 329 330 329 330 329 332 332 331 332 331 332 333 333 332 333 336 337 336 340 345 344 339 341 343 342 342 342 341 339 340 341 341 341 340 340 340 339 332 327 329 329 329 328 325 318 310 311 316 323 327 328 330 331 332 332 332 331 330 330 331 332 332 331 329 328 326 327 329 329 330 330 329 328 326 322 320 318 316 320 323 321 322
327 327 328 330 333 335 336 334 333 332 330 325 325 328 328 328 329 331 332 329 332 332 332 332 332 333 332 334 331 333 338 340 337 338 341 338 339 342 341 343 343 342 342 339 339 340 340 341 340 339 340 337 329 327 330 329 329 328 325 318 309 310 314 321 326 327 330 330 332 332 331 332 331 331 331 332 332 331 329 328 325 324 325 326 326 326 326 326 326 323 320 316 312 313 316 319 319
327 326 328 333 334 335 334 332 331 330 328 324 324 328 329 328 330 331 331 329 331 331 332 332 332 332 332 334 330 333 338 340 341 338 339 340 342 339 340 343 341 342 341 339 340 339 340 340 339 339 338 333 327 330 331 330 329 327 327 319 309 309 312 318 324 326 330 329 330 331 330 331 330 331 331 332 333 331 331 328 326 326 326 325 324 323 323 324 324 323 321 318 314 312 311 313 315
327 326 329 333 334 334 334 333 332 329 327 325 324 329 330 331 331 331 330 329 330 331 333 332 333 333 332 333 330 335 336 337 342 341 341 343 343 339 340 342 341 342 340 340 341 338 339 339 339 338 332 327 328 331 332 331 329 327 327 322 311 309 310 314 317 320 327 328 328 329 329 329 330 330 330 331 331 330 329 326 327 328 326 325 324 323 321 321 320 320 319 317 315 313 311 309 310
326 326 329 332 334 334 334 333 333 330 328 327 326 330 331 331 331 330 330 330 331 332 333 331 333 333 332 333 333 338 337 338 339 340 341 339 339 339 340 341 340 341 340 341 341 339 338 339 338 332 327 328 331 332 332 331 329 327 327 324 315 309 310 310 311 312 317 321 321 323 327 327 328 328 328 328 329 329 327 325 327 328 326 325 324 322 320 318 316 315 315 315 315 313 311 308 307
326 326 330 332 333 333 333 333 332 329 330 330 328 330 331 331 330 330 330 331 332 332 332 332 332 333 334 334 335 338 337 339 340 338 339 335 335 339 340 341 340 341 340 341 341 339 337 338 333 326 327 332 333 332 332 330 328 328 326 325 319 313 312 312 313 311 311 313 313 316 319 320 323 326 326 326 327 327 326 325 327 328 327 326 324 322 320 317 313 311 310 311 313 312 310 308 308
327 329 331 333 333 332 333 332 331 330 330 330 329 330 331 330 330 330 330 330 331 332 332 331 331 332 334 334 337 339 334 336 338 333 332 331 336 340 341 340 340 340 341 341 340 338 336 334 327 325 330 334 334 332 332 330 328 328 326 326 323 319 318 318 318 315 313 314 313 313 313 313 317 323 326 327 328 326 324 325 327 327 326 325 323 321 321 318 313 310 308 308 310 310 309 309 309
329 331 330 333 334 333 333 331 330 331 330 330 329 329 330 330 330 330 330 330 331 332 331 331 331 331 332 335 339 339 334 331 331 328 326 328 336 340 340 340 340 340 341 341 340 339 337 330 324 327 330 333 334 333 332 330 328 328 326 325 324 322 322 320 319 317 317 318 317 314 313 312 315 319 323 328 329 327 325 325 326 326 325 324 322 320 320 318 314 310 308 307 308 309 308 309 309
330 332 330 333 335 333 332 331 329 330 330 331 329 329 330 330 330 329 330 329 330 331 331 331 330 331 332 338 341 339 335 330 328 327 326 328 335 340 340 340 339 340 341 341 340 340 338 330 324 326 328 331 332 332 332 331 329 329 326 323 322 321 319 316 315 316 316 316 315 314 313 313 315 316 319 323 326 328 327 325 324 324 325 324 321 320 320 318 315 310 307 308 308 309 309 309 308
330 332 331 333 333 333 332 331 330 330 330 330 331 330 330 330 329 329 330 330 330 331 330 330 330 330 334 340 342 340 336 333 329 328 327 328 335 339 340 339 339 340 341 341 340 340 339 331 325 325 326 329 330 329 330 331 329 328 327 324 321 319 317 314 313 313 312 312 312 312 313 315 316 315 317 318 321 327 328 327 326 325 326 325 321 321 323 321 319 314 310 311 310 310 309 308 307
330 331 330 333 333 332 330 331 331 331 330 330 331 330 331 329 329 329 329 330 330 331 329 330 331 329 334 340 340 339 340 338 332 330 329 329 334 338 339 339 339 340 340 340 339 339 338 331 325 325 325 327 328 328 329 330 329 327 327 326 322 317 314 312 311 311 311 313 312 311 313 317 317 315 317 317 318 324 326 326 327 325 325 325 321 320 324 323 320 319 316 313 312 311 310 308 307
331 332 330 332 333 332 330 329 330 331 330 330 331 331 330 329 328 329 329 330 330 330 330 330 331 330 335 340 341 341 342 339 333 330 329 331 337 339 339 338 339 340 341 340 339 339 338 331 325 324 325 326 327 329 329 329 329 327 327 327 324 319 316 313 311 311 311 313 313 312 313 316 317 317 317 317 318 322 323 323 324 324 324 325 323 321 323 324 322 320 319 317 315 313 311 309 307
330 332 330 332 333 333 331 330 330 331 331 330 331 331 330 329 329 329 329 330 330 330 330 329 331 331 336 340 342 343 340 337 334 331 333 335 337 338 338 338 339 340 340 340 339 339 338 331 324 324 325 325 326 328 329 329 329 328 328 328 326 322 318 315 312 311 310 312 313 312 314 316 317 319 318 317 317 318 321 321 320 320 321 322 323 321 320 323 323 320 319 320 320 318 317 314 309
328 330 329 332 331 332 332 330 330 330 331 330 331 331 330 330 329 329 329 330 330 330 329 329 331 331 337 341 342 342 338 336 335 333 337 337 336 338 339 339 339 339 339 339 339 339 339 333 326 324 324 325 325 326 327 328 329 329 329 328 326 322 318 314 312 311 310 310 312 312 314 315 315 316 318 319 316 314 318 318 317 317 318 316 316 319 320 321 322 321 321 320 320 320 318 314 310
326 327 331 333 330 331 331 330 330 330 332 331 332 331 330 331 329 329 329 329 329 328 329 329 330 333 337 339 341 341 336 334 335 334 336 336 336 338 338 339 339 338 338 339 339 339 340 336 331 327 326 326 326 326 325 326 327 328 329 328 324 322 317 313 312 311 311 310 311 312 313 314 313 313 314 317 315 312 313 314 316 316 316 315 313 315 318 318 319 320 319 316 315 314 312 310 309
326 327 334 335 331 331 331 330 331 331 332 331 332 331 330 331 330 330 328 328 329 328 330 331 332 335 336 337 338 336 331 331 334 333 333 334 336 336 336 338 338 338 338 338 339 339 340 338 336 333 331 329 328 327 326 325 326 326 327 326 322 321 317 314 314 312 311 310 310 311 312 312 312 312 312 313 313 312 311 311 312 313 313 313 312 312 313 313 314 313 313 312 311 309 309 309 309
327 327 333 336 333 331 330 330 331 331 331 331 332 331 331 331 330 330 328 328 329 329 330 331 331 332 331 332 334 331 328 330 332 334 333 334 335 334 335 337 337 337 337 338 339 339 339 339 338 337 336 334 331 329 329 330 330 328 325 323 320 317 315 315 315 315 313 311 310 310 310 311 311 311 311 311 312 311 311 310 310 310 311 311 311 311 310 310 310 310 310 310 310 309 310 310 310
328 327 330 333 333 330 329 330 330 330 330 331 332 331 330 331 331 329 328 328 329 329 330 331 332 331 329 329 330 328 328 329 331 334 334 334 335 335 336 337 336 337 336 337 338 338 338 339 339 338 338 337 334 332 334 334 333 331 325 320 315 315 316 316 317 317 315 313 311 311 310 310 310 310 310 310 311 310 310 311 310 310 310 310 310 310 310 309 309 309 309 309 309 309 309 310 310
328 328 329 330 330 329 329 329 328 329 329 331 332 331 331 331 332 330 329 329 328 330 331 332 334 335 332 329 327 327 328 329 332 334 335 336 337 336 337 338 337 337 336 336 337 337 337 338 338 338 338 338 337 335 335 335 334 332 328 320 314 316 319 320 320 320 319 316 314 312 311 310 311 311 311 312 311 311 310 311 310 310 310 310 309 309 309 309 309 309 309 309 309 309 309 310 309
329 329 328 328 328 327 328 328 327 329 329 330 332 331 331 332 331 330 330 330 328 329 330 330 332 334 335 331 327 327 328 329 334 336 337 337 338 337 338 338 337 338 337 336 336 337 337 337 337 337 337 338 338 336 336 336 335 334 332 327 323 322 323 324 325 325 324 322 319 317 313 311 313 315 318 318 314 312 312 311 310 310 310 309 310 310 309 309 309 309 309 309 309 309 310 309 309
329 330 329 327 326 326 327 327 327 328 329 330 331 331 331 331 331 330 331 332 330 328 329 329 328 329 333 333 329 330 330 330 335 339 339 338 338 338 337 338 337 337 338 338 336 336 336 336 337 337 336 336 336 337 336 336 334 334 334 333 332 330 328 329 330 330 329 328 325 323 319 317 318 319 322 323 318 313 312 311 310 310 310 310 310 310 309 309 309 309 309 310 310 310 310 309 310
329 330 329 329 327 326 326 327 327 328 329 331 331 331 330 331 330 330 330 332 330 328 328 329 329 328 330 332 332 334 335 333 334 337 340 339 338 338 337 337 337 337 337 338 337 336 336 336 336 336 336 335 335 336 336 335 334 334 334 334 334 334 333 332 332 332 331 331 330 329 327 325 324 322 322 323 320 315 314 314 313 311 312 312 311 311 310 310 310 310 310 310 310 310 310 309 309
329 330 329 329 328 327 327 327 328 327 329 330 330 329 329 329 329 329 330 330 329 329 329 329 329 329 329 331 334 336 337 337 336 337 339 339 338 338 337 337 337 337 336 336 337 337 336 336 335 335 335 335 335 335 334 333 333 333 334 335 335 335 335 334 334 333 332 332 332 332 332 329 328 326 324 324 323 320 318 317 315 314 314 314 312 312 312 311 310 311 310 311 311 311 310 310 310
328 329 329 329 327 327 328 327 328 327 328 329 327 326 327 328 328 328 329 329 328 329 328 328 329 330 330 332 334 336 337 338 338 338 339 339 339 338 337 337 337 337 336 336 336 336 336 335 335 335 335 334 334 334 333 332 333 333 333 333 334 335 335 335 334 334 333 333 332 332 332 331 330 329 327 327 326 325 322 320 320 319 318 316 316 314 313 313 312 312 312 313 313 312 312 312 312
327 328 329 328 328 327 327 327 327 326 327 327 325 326 327 327 326 326 327 328 328 328 327 327 328 329 330 331 332 335 337 338 338 337 337 338 338 338 337 337 337 337 337 337 336 336 336 336 335 335 334 334 334 334 333 332 332 332 332 332 333 334 334 334 334 334 334 333 333 333 332 331 331 330 329 329 328 327 326 324 324 324 323 321 320 319 317 316 315 315 314 314 314 314 313 313 313
327 328 328 328 328 327 327 327 326 325 326 326 325 326 327 326 324 325 326 327 327 327 327 327 327 329 330 330 331 332 333 335 337 337 337 337 337 338 337 337 337 337 337 337 337 336 336 336 336 335 334 333 334 334 333 333 332 332 332 332 332 333 333 333 333 333 333 333 333 333 333 332 331 331 330 330 329 329 328 327 326 326 325 324 323 322 321 320 318 316 316 315 316 316 316 316 316
327 327 327 328 328 327 326 326 325 325 325 325 325 326 326 325 324 324 326 326 326 325 326 326 326 328 329 329 329 329 329 329 333 335 336 336 337 337 337 337 337 337 336 336 336 336 336 336 336 336 335 334 334 334 333 333 333 333 332 332 333 333 333 332 332 332 332 332 332 332 333 332 332 331 330 330 329 329 329 329 328 327 326 325 324 323 322 322 320 318 317 317 317 318 317 318 317
326 326 326 328 328 327 327 326 326 324 324 324 324 325 325 324 324 324 325 326 326 325 326 327 327 328 328 328 328 326 325 325 327 330 331 333 335 335 336 337 337 337 336 335 336 336 336 336 336 336 336 335 334 334 333 333 333 334 333 333 334 333 333 332 332 332 331 331 332 331 331 332 332 331 330 330 329 329 329 328 328 328 327 326 325 324 323 323 322 319 318 318 318 318 317 317 318
325 326 327 327 328 329 327 326 326 324 324 324 324 326 325 324 324 324 325 325 326 325 326 327 327 328 328 327 327 324 323 323 324 325 327 328 330 332 333 335 336 336 336 335 334 335 335 335 334 334 335 336 335 334 334 333 333 333 333 333 333 333 334 333 333 332 332 331 331 332 332 331 331 330 329 328 328 329 329 328 327 327 327 327 325 324 323 322 321 319 318 318 317 317 317 318 319
325 326 327 327 329 330 328 326 327 325 324 324 325 327 326 324 324 324 325 325 325 325 325 325 325 327 328 326 325 324 323 323 323 324 324 324 325 327 328 329 330 332 333 333 333 333 333 334 333 332 333 334 335 335 334 335 334 334 334 334 333 333 333 333 333 333 332 332 331 332 332 332 331 331 329 328 328 328 328 328 327 326 326 326 326 325 324 322 320 318 317 317 317 318 318 319 319
326 326 327 328 329 330 328 327 328 326 325 325 325 326 325 323 324 324 325 325 325 324 324 324 323 325 327 326 325 325 324 324 324 324 323 322 322 323 324 324 325 326 329 331 331 331 331 332 332 332 332 333 333 333 334 334 335 335 335 334 334 334 334 333 333 333 332 332 331 331 331 332 332 331 330 329 328 327 327 327 327 327 327 326 326 326 325 322 320 319 317 317 318 318 319 319 319
327 327 327 328 329 329 327 327 328 328 327 325 326 327 326 324 325 325 325 325 324 324 324 323 323 324 327 327 325 326 325 324 324 323 321 320 320 321 321 320 320 321 324 327 329 328 328 329 330 331 332 333 333 333 333 333 333 334 334 334 334 334 334 334 334 333 333 332 332 332 331 331 331 331 331 331 329 328 327 326 327 329 329 327 327 328 326 324 322 320 319 319 319 319 319 319 320
326 327 328 328 329 330 329 326 325 326 327 326 326 327 326 325 325 325 324 324 324 324 324 324 324 325 327 327 326 324 323 322 320 319 319 318 317 318 318 318 318 318 319 321 324 326 326 326 326 328 329 330 331 332 333 333 333 333 334 334 334 334 334 333 333 333 333 333 333 333 332 331 332 331 331 331 330 330 329 328 328 329 329 328 329 329 328 327 325 324 322 321 321 321 321 322 322
324 326 327 326 327 330 330 327 324 324 327 328 327 326 326 325 325 324 324 323 323 324 325 325 325 325 325 325 323 320 319 318 315 313 314 315 315 315 316 316 316 317 316 316 319 323 324 325 326 328 329 329 329 330 331 332 333 333 333 333 334 334 333 333 333 333 332 333 333 332 332 333 333 332 331 331 330 330 330 330 329 329 328 329 329 329 328 328 327 326 325 324 324 324 323 322 322
323 325 326 326 326 328 329 328 326 325 328 329 328 327 326 325 325 324 324 323 324 324 325 326 325 323 323 322 319 315 313 312 310 309 311 312 312 312 313 313 314 315 315 315 316 319 322 324 326 327 328 329 329 329 330 330 331 331 332 332 332 332 332 332 332 332 332 332 333 332 332 333 333 332 332 331 331 330 331 330 330 329 329 329 329 328 328 328 328 328 327 327 326 325 323 323 324
323 324 325 326 326 326 327 328 327 326 328 329 329 328 326 325 325 324 325 324 323 324 324 324 323 322 321 319 315 311 308 306 306 307 308 309 309 309 309 310 311 312 313 314 314 316 318 320 323 325 326 328 328 327 327 327 328 329 330 331 332 332 332 332 332 333 332 332 332 332 333 333 333 333 333 332 332 332 331 331 329 329 330 330 330 329 329 328 328 328 328 328 327 326 325 325 326
323 324 324 324 325 326 326 328 328 327 328 329 328 328 326 324 324 324 324 324 324 324 323 322 322 321 319 316 311 307 306 305 304 305 305 306 307 307 307 308 308 310 311 311 312 313 314 315 318 319 321 323 325 324 323 324 325 325 326 328 330 331 332 332 332 332 332 332 331 331 331 331 332 331 332 333 333 333 332 332 331 331 330 330 330 330 329 329 329 328 328 329 328 327 327 327 327
323 324 325 324 326 327 326 328 329 327 328 329 328 328 328 325 325 326 324 323 323 323 322 320 319 317 315 312 308 306 305 304 303 303 303 304 304 305 306 306 307 308 308 308 309 309 311 312 314 315 317 318 320 321 321 322 322 322 322 323 325 327 329 330 330 330 330 330 330 330 330 331 331 331 331 331 331 332 332 331 332 331 331 331 331 330 330 330 330 329 329 329 329 329 328 328 328
322 324 326 326 327 328 328 327 328 328 329 330 329 329 329 326 322 321 321 318 317 316 316 316 313 311 309 307 306 305 304 303 301 301 301 302 302 303 304 304 304 305 305 306 306 306 308 309 310 311 313 315 317 318 319 320 321 322 322 323 324 325 326 328 328 329 329 329 329 330 330 330 330 330 331 330 330 331 331 332 331 331 331 331 331 331 331 331 331 331 330 330 330 329 328 328 328
322 323 325 326 327 328 328 327 327 327 327 329 329 329 330 325 319 318 318 315 312 310 309 309 308 306 306 305 304 304 303 302 300 298 298 299 301 301 301 302 302 303 304 304 304 304 305 306 306 307 309 311 313 314 316 317 320 323 324 325 326 326 326 327 328 328 328 328 328 328 329 330 329 330 330 329 329 329 329 330 331 331 331 331 331 332 331 331 331 331 331 330 330 329 329 329 328
322 323 323 324 324 326 327 326 326 325 326 328 329 330 328 321 316 316 315 313 311 309 307 306 305 305 304 304 303 302 301 300 299 297 296 296 298 298 299 299 300 301 301 301 301 302 302 303 304 304 305 307 308 309 311 313 316 319 321 323 325 324 324 325 325 324 324 324 324 325 326 326 327 328 328 327 327 327 327 328 329 330 330 330 331 331 331 331 331 331 331 331 331 331 330 330 329
321 322 322 321 321 323 324 325 326 327 327 325 326 329 324 316 313 313 312 310 309 307 306 305 304 304 303 303 302 301 300 298 297 295 294 294 295 296 296 297 298 298 298 298 299 299 300 301 302 302 303 304 304 305 307 308 310 312 314 315 316 316 316 315 314 314 315 316 319 322 324 324 325 325 325 326 327 327 328 327 327 328 328 329 330 331 331 332 331 331 331 330 331 331 331 330 330
321 322 321 321 321 322 323 324 326 326 325 322 323 327 321 314 313 310 309 308 307 305 305 304 303 302 301 301 300 299 299 298 296 295 293 293 293 294 295 295 296 296 296 296 297 298 298 299 300 300 301 302 302 302 303 305 306 307 307 307 307 308 308 308 307 308 309 310 312 316 319 322 324 325 325 326 327 327 327 327 327 328 328 328 329 330 331 331 332 332 331 331 330 330 331 330 330
322 322 320 321 322 322 321 323 323 321 322 322 323 326 321 315 313 309 308 308 306 304 303 302 301 300 299 298 298 297 297 296 295 294 293 292 292 292 293 294 294 295 295 296 296 296 297 297 297 298 298 299 300 300 301 302 303 303 303 303 303 303 304 304 305 306 307 308 309 311 312 315 318 321 323 324 325 326 326 326 326 327 327 327 327 328 329 330 331 331 332 331 331 330 331 331 330
321 322 321 321 321 320 319 320 320 319 321 322 322 323 321 317 313 310 309 307 305 303 302 301 300 299 298 297 296 296 295 294 293 292 291 291 292 292 292 293 293 294 294 295 295 295 296 296 296 297 297 297 297 298 298 299 299 300 300 301 301 301 301 301 302 304 305 306 307 309 310 310 312 314 316 318 320 322 322 323 324 325 326 326 326 326 327 328 329 330 330 330 331 331 331 331 331
319 320 322 322 320 320 319 317 318 319 322 323 320 318 320 318 313 311 310 307 304 303 301 300 299 298 297 296 295 294 294 293 292 291 291 291 291 292 292 293 293 293 294 294 295 295 295 295 296 296 296 296 296 296 297 297 298 298 298 299 299 299 299 299 300 302 303 303 304 306 307 308 309 310 310 311 312 314 314 315 317 318 319 321 324 325 325 326 326 327 328 328 329 329 329 329 330
318 319 321 322 321 321 320 318 320 320 321 322 319 317 319 317 312 311 311 308 304 302 300 299 298 297 296 295 294 294 293 292 291 291 291 291 291 291 292 292 292 293 293 294 294 294 294 295 295 295 295 295 295 296 296 296 296 297 297 297 297 297 298 298 299 300 300 301 302 302 303 304 305 307 308 309 309 309 310 310 311 312 313 315 318 321 323 325 325 326 326 327 327 328 328 328 328
318 319 320 320 321 321 320 320 320 319 319 319 316 315 316 314 310 308 308 306 303 301 300 298 298 297 296 295 294 294 293 292 291 291 291 291 291 291 292 292 292 292 293 293 293 293 294 294 294 294 295 295 295 295 295 295 295 295 295 296 296 296 296 297 297 298 298 298 299 299 300 301 302 304 305 307 308 309 309 309 309 310 310 311 313 315 317 320 323 324 325 325 326 327 327 328 328
319 320 320 320 321 320 320 321 320 319 320 319 315 314 312 309 307 304 303 302 301 301 299 298 297 296 295 294 294 293 293 292 291 291 291 291 291 291 291 291 291 292 292 292 293 293 293 293 293 293 293 293 294 294 294 294 294 294 294 294 295 295 295 295 295 295 296 296 296 297 297 298 299 299 301 302 303 305 306 307 308 308 309 310 310 310 311 314 317 320 322 323 324 324 325 326 326
317 319 319 320 320 319 320 321 320 319 319 318 316 313 310 307 306 303 301 300 300 299 298 297 296 295 295 294 294 293 293 292 292 291 291 290 291 291 291 291 291 291 291 292 292 292 292 292 292 292 292 292 292 293 293 293 293 292 293 293 293 293 293 293 293 294 294 294 294 295 295 296 296 296 297 297 298 299 301 302 304 305 306 306 307 308 309 310 311 313 316 319 320 322 322 323 324
317 318 319 319 318 318 319 319 320 319 319 319 316 312 310 307 305 303 301 300 299 298 297 297 296 295 295 294 294 293 293 293 292 291 291 290 290 290 290 290 291 291 291 291 291 291 291 291 291 291 291 291 292 292 292 292 292 291 291 291 291 292 292 292 292 292 292 292 293 293 293 293 294 294 295 295 295 296 297 298 299 300 301 303 304 305 307 307 308 309 310 312 315 317 319 320 321
318 319 320 320 318 318 319 318 319 320 319 318 312 308 307 305 303 302 301 300 299 298 297 296 296 295 295 294 294 293 293 293 292 291 291 290 290 289 289 290 290 290 290 291 290 290 290 290 290 290 290 290 291 291 291 291 291 291 291 291 291 290 290 291 291 291 291 291 291 291 291 291 292 292 293 294 294 295 295 295 296 297 297 299 300 301 303 305 306 307 308 308 309 311 313 315 317
319 319 319 318 316 317 318 318 318 318 319 315 308 305 304 303 302 301 300 299 298 298 297 296 296 295 295 294 294 293 293 293 292 291 291 290 290 289 289 289 289 289 289 289 289 289 289 289 289 289 289 289 290 289 290 290 290 290 290 290 290 290 290 290 290 290 290 290 290 290 290 290 290 291 291 292 292 293 293 294 295 296 296 296 297 298 299 300 302 304 305 306 307 307 308 309 312
319 319 317 316 315 317 318 318 317 316 318 314 308 305 305 305 305 302 299 299 298 297 297 296 296 295 295 294 294 293 293 292 292 292 291 290 290 289 289 288 288 288 288 288 288 288 288 288 288 288 288 288 288 288 288 288 288 289 289 289 289 289 289 289 289 289 289 289 289 289 289 289 290 290 290 290 291 291 292 292 293 294 294 295 296 296 297 297 298 300 301 303 304 305 306 306 307
317 318 316 315 317 318 317 318 318 316 316 314 309 307 306 307 306 301 299 299 297 297 297 296 296 295 295 294 294 293 293 292 292 292 291 290 289 289 289 288 288 288 287 287 287 287 287 287 287 286 286 286 286 286 286 287 287 287 287 287 287 287 287 287 287 287 288 288 288 288 288 289 289 289 289 289 289 290 290 291 291 291 292 293 293 294 295 295 296 296 297 299 300 302 303 304 305
316 317 316 314 315 317 316 317 319 316 315 315 312 310 309 307 303 301 300 299 297 297 296 296 296 295 295 294 294 293 293 292 292 291 290 289 288 289 288 288 288 287 287 287 286 286 286 286 286 285 285 285 285 285 285 285 285 285 285 285 286 286 286 286 286 286 286 287 287 287 287 287 288 288 288 288 288 288 289 289 289 290 290 290 291 291 292 293 294 294 295 296 297 298 300 301 303
315 316 316 315 314 316 315 315 316 314 314 314 314 313 309 303 301 301 300 298 297 297 296 296 295 295 294 294 293 293 292 292 291 290 289 288 288 288 288 288 288 287 287 286 286 286 286 286 286 285 284 284 284 284 284 283 283 283 283 284 284 284 284 284 285 285 285 285 285 285 286 286 286 286 287 287 287 287 287 288 288 288 288 289 289 289 290 290 291 292 292 293 294 295 296 298 299
312 313 314 314 314 315 313 313 314 313 313 313 314 314 307 300 299 299 298 297 297 296 296 295 295 294 294 293 293 292 292 291 290 289 288 287 287 287 287 287 287 287 286 286 285 285 286 286 286 285 284 284 283 283 283 283 283 283 283 283 283 283 283 283 283 283 284 284 284 284 284 285 285 285 285 286 286 286 286 287 287 287 287 287 288 288 288 289 289 289 290 290 291 292 293 294 296
Wind_Speed
5 6 7 5 6 9 7 7 4 2 3 3 6 5 1 2 3 1 3 6 4 5 7 5 6 6 4 3 3 12 16 10 6 4 2 5 10 14 17 17 15 16 11 14 20 21 18 16 14 12 11 10 8 7 7 6 6 6 5 7 10 12 13 12 12 12 10 8 8 10 10 9 9 8 8 7 6 5 4 3 3 4 4 4 5 6 6 6 6 5 3 2 6 10 11 8 7
5 6 5 5 7 6 8 5 3 2 3 4 7 3 3 2 2 4 7 5 5 5 6 5 6 5 2 3 3 7 15 14 12 11 8 7 11 13 18 17 13 14 12 12 19 22 18 17 15 13 12 10 9 8 8 7 6 6 6 7 9 11 11 11 12 12 11 9 8 8 8 7 7 7 6 6 5 5 5 4 5 5 6 7 7 8 8 8 10 10 9 7 3 5 9 10 9
6 6 4 5 8 8 8 4 3 3 3 5 4 2 4 4 5 8 8 6 6 6 5 5 5 4 4 4 3 5 10 13 14 12 10 7 7 11 17 16 15 15 10 8 17 22 19 18 15 13 13 11 9 8 8 7 6 6 6 8 9 10 10 11 12 13 11 9 9 8 7 7 7 6 6 6 5 5 6 6 6 6 8 9 9 10 11 12 13 12 12 11 8 5 5 8 9
7 6 3 6 9 7 5 3 3 4 5 5 0 1 2 6 8 8 9 6 4 4 4 3 4 5 4 4 7 8 10 12 12 8 8 7 5 9 18 18 16 14 8 5 13 20 18 17 15 14 12 11 10 9 9 7 6 6 6 7 8 9 10 11 10 11 11 9 9 9 8 8 7 7 6 6 6 6 6 7 7 7 8 9 9 10 11 12 13 13 14 13 11 8 5 6 7
8 5 3 5 7 4 2 2 3 4 5 3 1 3 5 9 7 6 9 8 4 3 2 1 2 4 4 8 8 6 6 8 10 7 6 6 4 10 20 20 17 13 8 6 9 15 16 17 15 13 12 11 10 9 8 6 6 6 6 7 7 8 8 8 7 8 9 9 8 8 9 9 8 8 7 8 8 8 8 8 8 8 9 9 9 10 10 11 11 11 12 13 12 10 7 5 4
8 6 3 6 9 5 3 3 3 6 7 4 1 4 7 8 6 4 8 10 5 4 2 2 2 2 6 9 11 8 5 5 5 5 4 3 6 15 21 19 16 12 9 8 8 10 13 17 15 13 13 12 11 9 7 6 6 6 6 6 7 7 7 6 5 5 5 6 7 7 9 10 10 9 9 9 9 10 11 10 9 9 10 10 9 9 8 8 7 7 9 10 12 10 7 4 3
7 7 3 5 9 5 3 4 4 6 6 5 1 5 7 6 5 3 5 7 5 4 1 3 2 1 4 8 10 9 5 4 2 2 3 4 12 20 20 18 14 10 8 9 8 6 8 16 16 14 14 13 12 9 8 6 5 5 5 6 7 7 6 5 4 4 4 3 5 7 7 9 11 11 10 9 7 9 10 10 9 10 11 10 9 9 7 6 5 5 7 9 10 9 7 5 4
3 7 6 3 4 3 3 4 5 6 4 2 2 6 7 6 4 3 3 3 4 5 4 2 1 2 3 9 9 5 5 5 3 4 4 5 15 21 18 16 13 9 10 11 10 5 6 15 16 14 14 13 12 10 9 7 6 6 5 6 6 6 5 5 4 4 3 3 4 7 8 9 11 11 11 9 7 7 9 10 10 10 9 9 9 8 7 7 5 6 8 8 8 8 7 6 4
2 5 7 3 3 3 5 4 6 7 6 2 5 7 7 6 3 2 2 3 4 5 7 3 1 1 7 15 13 6 6 6 5 5 6 6 16 21 16 14 12 10 13 13 11 7 7 14 15 14 14 13 12 11 9 8 7 6 5 6 5 5 4 4 3 2 2 2 4 7 9 10 11 12 13 11 9 7 7 9 9 7 7 7 7 7 6 6 5 6 7 6 7 8 7 5 4
2 6 6 2 3 4 5 5 6 7 8 4 5 8 7 4 3 2 2 2 6 6 7 4 1 1 10 16 11 7 7 5 4 4 6 7 17 20 15 13 10 10 14 12 10 8 7 13 16 14 15 13 12 11 10 9 7 6 5 5 4 3 3 2 1 1 1 3 3 5 9 10 9 10 12 13 12 10 7 7 7 5 5 6 6 5 4 4 5 6 5 5 6 7 6 5 4
5 6 8 3 4 5 5 5 5 6 8 3 5 7 6 3 2 1 1 1 5 7 6 3 1 3 9 13 9 8 7 5 5 4 6 9 17 16 13 13 10 10 12 10 8 8 8 14 16 13 14 13 12 11 11 10 8 7 5 5 4 3 2 0 1 2 2 3 4 5 8 9 8 8 10 11 13 13 11 9 8 6 6 7 5 5 4 4 5 5 6 5 6 6 6 6 6
2 4 5 4 5 4 5 5 5 7 7 3 3 7 6 2 1 1 2 2 5 8 6 2 0 1 5 10 9 10 8 6 5 4 6 11 16 14 13 13 12 11 11 10 8 7 8 14 17 14 14 13 13 11 10 10 9 7 6 6 5 4 2 3 3 2 2 2 3 5 7 8 8 8 9 10 12 15 15 14 12 8 6 6 5 5 5 5 5 6 6 6 6 6 7 7 7
4 1 3 4 5 4 5 5 4 7 5 4 4 9 6 3 2 2 2 1 7 7 5 5 3 2 6 12 12 10 7 5 5 5 8 12 15 15 12 11 12 12 11 10 8 6 6 13 16 14 14 13 13 12 11 10 9 8 7 7 7 7 6 5 4 3 2 2 2 4 6 7 8 8 8 8 9 13 15 15 13 10 7 7 7 7 6 6 6 6 5 6 7 7 7 7 8
7 3 1 4 4 5 5 5 6 6 3 3 8 11 5 3 5 2 3 1 4 5 5 4 3 3 8 12 11 9 5 4 6 8 11 11 14 15 12 9 11 11 11 10 8 6 4 9 14 14 13 13 13 12 11 10 9 9 9 9 9 8 7 6 6 4 3 2 2 3 5 8 9 10 8 7 8 10 13 12 11 10 8 8 8 7 6 6 7 7 7 7 7 7 7 8 8
10 3 1 3 4 6 5 6 6 4 1 2 8 11 6 6 4 1 2 2 6 8 6 3 4 4 5 7 8 7 4 3 6 9 11 12 13 15 14 12 10 9 10 10 8 7 5 6 10 12 11 12 12 12 12 11 11 10 11 10 10 9 9 8 7 6 4 3 3 4 5 7 8 10 9 8 8 8 10 10 9 9 9 8 7 6 6 6 7 8 8 8 7 8 7 8 9
11 4 1 2 4 5 5 6 5 4 2 3 6 9 7 6 3 1 2 2 4 7 7 7 7 7 9 11 9 5 2 3 5 8 10 12 13 13 14 13 11 8 9 11 9 8 7 6 7 8 9 11 11 12 11 11 11 11 12 12 11 10 10 9 8 7 6 5 4 4 5 6 7 8 9 9 8 8 9 9 9 8 8 8 8 7 7 7 7 7 8 8 8 8 8 8 8
10 4 2 3 5 6 5 6 4 3 2 5 7 7 5 6 4 1 2 1 4 8 9 10 9 8 10 11 6 2 3 3 5 8 8 11 10 9 12 12 11 8 10 12 10 9 8 8 8 7 7 9 10 10 8 8 9 10 12 13 12 11 11 10 9 8 7 6 6 5 6 6 7 7 8 8 8 8 9 9 9 9 9 9 9 9 9 9 8 8 8 9 8 8 8 9 8
9 3 4 6 7 8 6 6 6 4 3 5 7 8 6 6 6 4 4 2 5 9 11 12 10 10 10 9 5 3 3 3 5 7 6 8 7 7 10 9 8 6 8 12 11 9 9 9 9 8 7 7 7 7 7 7 8 9 11 13 13 12 11 11 10 9 8 8 7 7 7 7 7 7 8 8 8 9 9 10 10 10 10 10 10 10 9 10 10 10 10 10 10 10 10 10 9
11 3 5 8 9 7 6 8 6 7 6 6 7 8 7 6 7 5 4 5 8 9 10 13 13 12 11 9 6 4 4 4 6 7 6 8 7 6 8 6 6 4 3 8 11 10 10 10 10 9 8 7 8 8 8 9 9 8 8 11 12 12 12 12 11 11 10 10 9 9 8 8 8 8 8 8 9 9 10 10 10 10 10 10 10 10 10 11 11 11 11 11 11 12 12 11 11
12 8 5 7 8 4 10 18 14 9 7 6 8 6 5 7 7 3 1 4 7 6 7 11 13 12 9 8 7 6 6 6 7 7 7 9 7 6 6 4 5 5 3 3 7 10 10 11 11 11 10 10 9 10 10 10 10 8 7 8 8 10 11 12 12 13 12 12 11 11 9 8 8 7 7 9 10 10 11 11 10 10 11 11 11 11 12 12 12 12 12 13 13 13 13 12 12
8 10 7 5 8 6 15 24 19 10 10 5 8 6 4 8 5 2 2 2 3 9 12 12 13 12 9 6 6 7 7 8 9 8 6 8 7 5 5 3 2 4 5 3 4 7 10 11 12 12 12 12 12 12 12 11 11 8 7 7 8 9 9 10 11 12 13 13 12 12 10 8 8 8 8 11 12 12 13 13 12 12 13 13 13 13 14 14 14 14 14 15 15 15 14 14 14
5 10 9 7 9 7 13 21 18 10 9 3 4 6 5 7 4 2 2 1 4 10 13 13 12 10 8 5 6 7 7 7 9 8 7 6 6 6 5 4 2 3 5 5 4 3 6 9 11 12 12 12 13 14 14 13 12 10 8 8 9 10 10 11 11 11 12 12 12 12 11 9 9 11 11 13 14 14 14 14 14 14 14 14 14 15 15 15 15 16 16 17 16 16 15 16 16
8 8 10 16 19 10 10 18 16 8 7 4 5 7 6 6 5 4 2 3 10 11 10 11 9 9 8 6 6 6 6 6 7 7 7 6 5 6 5 4 2 2 2 4 4 4 4 5 8 10 11 11 12 13 14 14 13 11 10 11 11 11 12 12 11 11 12 12 12 12 13 12 11 12 13 13 14 15 15 14 14 15 15 15 15 16 16 16 16 17 17 17 17 17 17 18 18
13 6 8 18 23 20 16 15 17 13 9 7 3 1 4 4 3 4 3 3 7 9 8 8 8 7 7 8 8 7 7 7 5 5 6 5 4 5 5 5 2 1 1 1 2 4 3 3 4 7 8 9 10 11 12 12 12 12 11 13 14 13 13 13 13 12 12 12 13 13 16 15 14 15 14 13 14 16 16 15 14 15 17 16 16 17 17 17 18 18 17 17 17 18 18 18 19
14 10 8 11 17 23 21 14 16 16 12 9 0 4 0 1 6 4 1 2 4 8 8 6 7 6 7 10 10 9 9 8 6 6 6 5 4 4 4 5 3 1 0 2 2 0 1 3 5 7 9 9 9 9 9 10 11 11 11 12 13 14 15 15 14 14 13 13 14 16 17 18 17 17 16 15 17 18 18 16 16 17 17 17 17 18 18 18 18 18 18 18 18 18 19 19 19
12 14 11 8 13 16 13 13 14 13 11 12 5 1 2 3 7 6 3 3 3 3 4 4 4 5 8 10 11 12 11 11 9 7 6 6 5 3 2 3 3 2 2 1 3 2 2 4 6 8 8 7 8 9 8 8 8 9 10 11 10 12 14 14 14 15 16 15 15 17 18 18 18 19 19 19 18 18 18 17 17 18 18 19 19 19 19 19 20 20 19 19 18 18 18 19 20
7 13 15 13 16 12 6 13 14 11 10 13 9 4 6 5 3 1 3 3 5 5 3 2 3 6 8 10 12 14 13 13 12 10 9 9 9 8 5 5 4 2 1 3 0 2 2 4 6 7 7 7 8 9 9 8 7 8 8 8 9 10 11 11 12 13 14 16 16 17 18 19 18 19 20 21 20 18 19 18 18 19 20 20 21 21 20 21 22 21 20 19 19 19 19 19 19
2 7 12 15 16 11 5 11 14 11 8 12 11 4 8 8 6 7 7 1 3 3 4 5 5 8 9 10 13 16 16 15 15 15 14 12 10 10 8 7 7 6 5 2 1 1 2 4 5 6 8 10 10 9 10 9 9 9 9 9 11 11 11 11 11 11 11 12 14 15 17 18 18 19 20 20 20 19 19 20 19 20 21 21 21 22 22 22 23 23 22 21 20 20 20 20 20
5 3 5 11 12 10 10 11 15 10 6 12 11 2 8 9 8 12 15 7 4 3 4 5 6 9 10 11 14 17 19 20 21 21 19 17 14 12 11 9 8 8 7 6 3 1 0 3 4 5 7 10 12 10 8 8 7 9 8 9 11 12 12 12 12 12 11 11 11 11 13 16 18 19 20 19 18 18 21 22 21 21 22 22 22 21 21 22 23 22 22 21 20 20 21 20 20
6 3 2 6 6 8 13 14 15 11 9 13 12 3 7 8 12 16 18 15 9 7 6 3 3 5 8 13 18 20 22 23 25 25 23 21 18 16 14 11 8 8 7 6 5 5 4 3 3 3 5 7 10 10 9 8 7 8 7 7 8 10 12 13 14 13 13 13 12 11 13 16 18 19 19 18 17 18 20 22 22 21 21 22 21 21 22 22 22 22 21 21 20 20 21 21 21
4 3 2 4 5 6 12 14 11 8 9 15 12 4 5 3 10 20 22 19 15 11 8 8 7 7 9 13 18 23 23 24 24 23 23 22 20 17 17 15 11 9 7 6 5 5 5 4 4 4 4 5 7 8 9 9 9 9 10 9 9 9 11 12 13 13 14 14 14 13 14 16 18 20 20 19 19 19 19 20 20 20 20 20 19 20 22 23 23 22 22 22 21 21 22 22 23
3 5 3 4 6 5 10 13 10 5 6 13 11 3 3 1 3 14 20 18 14 9 7 9 11 11 12 15 18 23 23 22 23 21 21 22 21 18 17 16 13 10 8 6 6 6 4 2 2 3 1 3 4 6 7 8 8 8 10 10 11 11 12 12 12 12 13 14 14 14 14 14 16 19 20 21 22 20 19 20 19 19 20 18 19 21 23 24 24 23 23 23 23 22 23 23 24
3 5 3 4 7 5 8 11 13 11 7 10 9 2 2 2 9 14 16 16 13 9 5 4 7 10 13 16 18 23 22 22 24 22 20 20 19 17 16 15 11 9 8 6 6 7 6 5 4 5 5 3 1 2 5 7 7 7 8 10 11 12 13 13 13 13 13 13 13 14 14 14 15 16 17 19 21 21 20 20 19 20 19 18 20 23 24 25 25 25 24 24 24 24 24 24 24
4 4 3 3 6 5 6 8 13 15 10 9 9 4 4 6 8 12 14 15 13 11 8 8 16 22 23 23 24 26 25 26 26 23 19 17 16 15 13 12 9 9 9 7 6 6 7 6 6 6 6 6 6 4 2 2 5 7 8 9 10 11 12 12 12 13 14 14 14 14 14 14 15 16 17 17 19 19 19 19 20 20 19 19 22 24 25 26 26 26 26 25 25 25 24 23 23
8 7 4 3 5 5 5 6 8 11 8 8 9 6 6 8 7 10 14 14 13 12 11 17 25 27 27 28 29 29 29 29 26 22 19 17 16 15 14 12 10 10 10 9 7 5 6 6 5 5 5 6 6 6 6 5 2 3 6 8 8 9 10 10 10 12 12 13 13 13 14 14 15 16 16 17 18 18 18 20 20 20 19 20 21 23 24 25 26 26 27 27 26 26 25 22 21
11 9 5 4 5 5 5 3 4 9 7 6 8 6 6 6 6 8 13 16 16 14 15 22 27 27 29 31 31 30 31 30 27 25 23 21 21 20 19 18 16 14 13 12 10 8 6 5 4 4 4 5 5 5 6 6 5 3 4 5 7 8 9 9 10 11 11 11 12 12 13 14 15 16 16 17 18 19 20 20 20 20 20 21 22 24 25 25 26 27 28 28 27 26 25 23 21
6 8 7 6 5 5 6 3 2 8 6 5 7 4 5 4 5 6 10 14 12 13 20 25 25 26 29 32 32 31 30 29 28 28 28 26 25 24 23 22 20 17 17 17 16 14 13 10 7 4 2 2 3 3 3 2 2 2 2 0 1 3 7 8 10 12 12 12 12 12 13 13 14 15 16 17 19 20 21 21 21 20 20 21 23 25 26 25 25 26 27 28 27 27 26 24 22
3 5 7 7 6 4 5 5 5 8 6 5 6 4 4 0 5 6 9 11 11 15 23 26 26 27 28 31 31 30 29 28 29 31 30 30 29 28 27 26 24 22 24 24 23 22 19 17 16 14 11 6 2 1 1 1 1 2 0 1 2 1 2 4 5 7 8 9 9 11 12 13 13 13 14 15 17 18 19 20 21 20 20 20 22 23 24 25 25 26 26 27 28 29 29 26 24
4 3 5 5 5 2 2 4 5 5 4 5 7 6 3 6 13 14 14 16 19 23 25 26 28 28 27 28 29 29 30 30 33 35 34 33 32 32 31 31 30 29 29 28 28 27 24 23 23 22 19 16 12 8 5 3 2 1 0 1 0 2 2 1 2 3 3 3 4 6 8 12 13 13 14 14 15 17 19 20 20 20 20 20 21 23 24 25 26 27 27 27 28 30 30 28 26
4 3 3 3 5 4 2 4 6 4 1 2 7 6 3 8 13 13 14 21 27 29 31 32 33 32 30 30 29 30 30 31 33 37 38 37 35 35 34 35 34 32 31 30 31 30 29 28 27 26 24 22 19 16 13 10 5 2 2 2 2 3 3 4 5 5 3 3 3 3 5 8 10 11 13 14 16 17 20 21 21 22 22 22 22 23 25 26 27 27 27 28 28 29 30 29 27
5 4 3 3 5 4 2 5 8 5 3 2 7 5 2 7 12 10 11 20 26 26 31 32 31 31 31 32 32 31 31 30 32 35 39 40 39 38 38 37 35 34 35 35 34 34 32 30 29 29 27 25 24 21 19 15 10 5 3 3 4 3 3 4 4 3 4 5 5 5 6 8 9 9 10 11 12 14 17 19 21 22 23 22 22 22 24 24 25 26 26 27 27 29 29 29 28
5 5 6 6 7 6 6 7 8 6 1 1 4 4 3 7 12 10 7 13 18 21 27 27 27 28 28 29 29 29 30 31 33 35 38 40 40 39 38 37 36 37 38 36 35 35 33 31 30 30 29 28 27 26 23 20 17 15 12 9 8 7 8 9 10 10 11 10 8 6 4 6 8 8 8 8 8 10 12 13 15 18 20 22 22 22 24 24 25 25 25 25 26 28 29 29 30
4 5 9 9 8 9 8 6 5 4 2 1 1 2 4 5 9 9 7 11 14 16 21 23 25 26 27 27 26 26 27 28 31 33 36 39 39 39 39 37 37 37 37 35 34 34 33 32 31 30 30 29 29 28 26 24 24 23 22 22 21 19 19 19 18 16 15 14 11 7 5 4 5 6 7 7 7 9 10 11 11 12 14 18 20 22 24 26 27 28 27 26 25 26 28 29 29
3 6 10 10 9 10 9 7 4 1 2 2 4 2 5 4 6 6 6 11 13 13 15 19 23 25 26 26 26 26 26 26 29 31 34 37 38 39 39 37 37 36 35 33 33 34 33 33 32 31 31 30 30 29 28 27 26 26 25 25 25 24 23 22 20 17 15 13 11 10 8 6 5 6 7 8 9 10 12 13 13 13 13 15 17 19 21 24 26 27 28 28 27 27 28 30 29
4 8 9 8 9 10 9 8 5 1 1 1 4 3 4 4 5 4 3 10 13 12 13 15 20 23 23 25 25 25 26 26 30 33 35 37 37 38 37 36 36 35 34 33 33 33 32 32 31 31 31 31 31 30 29 28 28 27 26 25 25 25 24 23 21 18 16 15 14 12 10 9 8 8 9 10 11 12 14 14 15 15 16 16 17 18 20 22 23 25 27 29 29 28 28 29 31
6 8 6 7 8 9 8 6 5 3 2 2 1 3 3 4 4 2 2 7 10 10 10 13 18 21 21 22 23 23 25 28 32 34 35 36 36 36 35 35 35 34 34 33 32 32 31 31 30 30 31 31 31 30 29 29 28 27 27 26 26 25 24 23 21 20 20 19 18 17 15 14 13 11 11 12 13 14 15 16 17 17 17 18 18 18 19 20 21 22 25 27 29 30 30 29 31
11 8 6 7 5 4 5 3 3 4 1 2 4 2 2 4 3 3 3 6 8 8 9 12 16 18 19 20 20 21 23 27 32 33 34 34 34 34 33 34 34 34 33 32 32 32 31 31 30 30 31 31 30 30 30 29 29 28 27 27 26 26 25 24 23 23 23 22 22 22 21 19 17 15 13 13 15 17 18 18 19 19 19 19 19 19 20 20 20 21 22 24 26 29 30 29 30
12 5 5 6 3 3 3 1 0 3 1 3 6 6 6 4 3 4 5 8 9 10 10 11 14 16 17 17 18 19 20 25 29 30 31 32 32 32 33 33 33 33 33 33 33 32 32 32 31 31 31 31 31 30 30 30 29 29 29 28 27 27 27 26 26 26 25 25 25 24 24 22 21 19 17 15 14 16 18 19 20 20 20 20 20 20 21 22 23 24 24 23 23 24 26 27 29
7 5 6 4 2 1 1 1 1 2 2 4 8 7 7 5 3 5 8 10 11 14 13 13 15 15 15 16 17 18 20 23 26 26 28 30 31 32 33 33 33 33 33 32 32 32 32 32 32 32 33 33 32 31 31 31 31 31 30 30 29 29 29 28 28 28 28 27 27 26 26 26 25 24 22 20 18 18 18 19 20 21 21 21 22 21 21 22 23 25 26 26 24 23 23 24 26
5 5 4 3 4 3 2 3 3 2 2 4 6 7 6 4 3 4 8 11 14 18 17 16 16 15 15 15 15 17 19 21 22 24 26 28 29 30 31 32 32 32 32 32 32 32 32 32 32 33 33 33 33 33 32 32 32 33 32 32 31 30 30 30 30 30 30 30 29 29 29 28 28 27 26 25 24 22 21 20 20 21 21 22 22 22 22 21 22 23 24 25 25 24 23 22 23
4 2 2 2 3 2 3 3 2 3 3 3 2 4 3 5 4 5 9 13 16 17 17 16 16 14 14 14 14 16 17 18 20 22 24 25 26 28 29 31 31 31 32 31 32 32 32 33 33 32 33 33 32 32 32 33 33 33 33 33 33 32 32 32 31 31 31 31 31 31 30 30 30 29 29 28 27 26 25 23 22 22 22 22 22 22 23 22 22 23 23 23 23 24 24 23 22
1 2 1 2 1 1 2 1 4 7 4 3 3 3 3 5 6 7 10 13 14 15 15 14 14 13 13 13 13 14 14 16 18 20 21 23 25 27 28 29 30 30 31 32 32 33 33 34 34 33 33 33 32 32 32 32 32 32 32 32 32 33 33 32 32 32 32 32 32 32 31 31 31 31 30 30 29 29 28 27 26 25 24 24 23 24 24 24 24 24 24 24 24 23 24 24 24
1 1 3 1 2 2 3 1 4 7 4 3 4 3 4 5 5 6 9 10 10 12 12 12 13 11 12 12 12 12 13 14 15 17 19 20 22 24 26 27 29 30 31 32 33 34 34 35 35 35 35 34 34 34 33 33 32 32 32 32 32 32 32 32 32 33 33 33 32 32 32 32 32 32 32 32 31 31 31 30 30 29 27 27 26 25 25 26 26 26 25 25 25 25 25 24 24
3 3 1 2 2 1 2 2 2 3 3 3 3 6 7 4 3 6 9 9 9 9 10 11 12 11 10 10 10 11 11 12 13 14 17 19 20 21 23 24 26 28 30 32 32 33 34 35 36 37 37 37 37 36 35 34 34 33 33 33 33 32 32 32 31 31 32 32 32 32 33 33 33 34 34 34 34 34 33 33 32 32 31 30 29 29 28 27 27 27 27 27 27 27 27 26 24
4 4 1 0 2 2 1 2 2 2 3 3 3 6 5 3 4 8 9 9 10 9 8 9 9 9 9 9 9 9 10 11 12 13 15 17 18 19 21 22 24 26 28 29 31 32 33 33 35 36 37 38 38 38 37 36 35 35 34 33 33 33 32 32 32 32 32 32 32 32 32 33 33 34 34 35 35 35 36 35 35 35 34 33 32 32 31 31 30 29 29 29 29 28 29 28 27
4 2 2 2 2 1 0 1 2 2 3 3 4 5 2 1 3 10 11 9 10 9 7 8 9 9 8 8 8 8 9 10 11 12 13 15 16 17 18 20 21 23 25 27 28 30 31 31 33 35 36 37 37 38 38 38 37 37 36 35 35 34 33 33 32 32 32 32 33 33 33 33 33 33 34 34 35 36 36 37 37 37 37 36 35 34 34 33 33 32 32 32 31 31 30 30 29
4 4 4 3 2 1 1 2 2 2 2 3 4 3 1 1 1 8 11 8 8 9 7 8 10 9 8 8 8 8 9 9 10 11 12 14 15 15 17 18 18 20 23 24 26 27 27 28 29 32 35 35 37 38 38 38 38 38 37 37 37 37 36 36 35 34 33 33 33 33 33 33 33 34 34 34 35 35 36 37 37 38 38 38 38 37 36 36 35 35 34 34 34 34 33 31 31
3 4 2 2 3 2 3 2 2 2 2 3 4 2 1 1 2 5 8 7 7 10 10 10 10 10 8 8 8 8 8 8 9 9 11 14 14 14 16 17 17 19 21 23 24 24 24 24 25 29 33 33 35 37 38 38 39 38 38 38 38 38 37 38 38 37 36 36 35 35 34 34 34 34 34 34 35 35 36 36 37 37 38 38 39 39 38 38 38 37 36 36 36 36 35 34 33
Wind_Direction
295 313 313 339 359 335 304 258 260 221 233 262 262 258 265 59 97 103 64 90 100 64 60 61 52 21 2 324 339 53 47 37 43 56 128 141 135 150 139 138 186 205 198 182 178 177 178 182 182 181 179 177 167 160 158 143 134 119 112 123 143 151 147 146 138 138 139 138 135 130 130 129 136 141 144 150 160 162 158 167 171 186 187 173 182 192 203 215 231 257 263 203 187 195 198 196 188
289 308 302 351 350 309 288 251 239 245 213 243 258 244 138 115 100 72 40 47 68 78 76 61 66 44 356 305 295 66 59 55 64 88 119 128 136 158 143 140 181 193 193 183 177 179 178 181 183 183 183 182 174 166 165 150 135 126 117 122 141 154 152 147 144 148 145 146 146 139 139 137 142 147 156 159 169 185 195 218 225 225 226 224 227 230 234 241 252 266 275 276 249 215 206 207 205
278 302 298 359 329 267 277 284 242 264 229 238 250 178 156 129 84 73 54 46 64 90 96 85 93 51 320 297 337 63 73 59 61 91 102 105 147 156 144 145 168 185 199 176 177 182 179 181 185 187 186 184 177 171 171 153 136 126 118 121 132 142 145 142 144 153 150 152 155 152 151 150 151 153 169 169 181 201 206 223 234 236 236 235 240 246 247 248 254 260 266 271 270 269 222 206 210
274 296 306 335 313 256 252 266 234 272 260 253 284 100 121 90 78 75 75 76 82 108 113 126 109 48 351 354 19 48 76 63 61 83 92 117 187 157 146 147 162 187 200 177 181 183 180 180 184 189 187 182 175 174 173 155 140 129 119 124 128 129 133 135 138 149 151 157 164 164 165 163 161 162 177 181 194 215 224 233 241 242 238 233 235 241 245 248 253 257 259 263 264 267 250 206 206
275 279 287 295 289 277 266 249 245 248 251 272 60 64 51 68 72 71 90 100 105 98 98 116 89 95 67 36 33 44 72 69 65 64 89 144 194 156 147 143 160 186 186 176 180 181 182 180 184 187 182 175 171 174 171 158 147 136 127 126 131 133 130 129 128 138 150 164 173 174 177 176 172 175 188 199 213 229 241 244 241 244 242 237 239 242 247 251 249 252 251 253 254 254 250 212 206
284 277 250 250 258 297 307 242 254 245 253 280 106 83 57 55 46 47 102 110 105 90 76 59 46 110 97 67 61 54 64 90 80 65 68 116 138 144 143 140 161 186 175 166 177 184 180 179 183 181 177 170 167 171 169 165 155 146 140 134 137 142 140 136 133 141 154 171 184 192 193 189 183 187 201 214 228 240 247 245 244 249 253 253 255 261 267 264 252 244 237 237 241 241 239 226 236
311 301 246 229 247 266 271 239 251 251 257 268 240 91 75 52 24 9 98 115 129 125 85 56 48 356 113 110 75 44 54 105 101 67 48 85 128 138 138 141 162 179 159 155 178 182 168 177 180 175 175 170 167 169 169 170 166 160 151 148 149 151 156 158 158 160 171 186 202 213 215 206 194 190 200 212 230 244 249 248 255 260 261 265 268 273 275 273 263 235 221 220 227 232 234 246 262
325 297 274 263 247 209 226 247 248 256 272 275 54 78 90 75 32 346 39 97 149 144 158 157 234 291 120 116 94 50 43 67 47 61 62 86 130 135 133 146 162 161 146 159 181 181 174 180 178 175 174 172 173 171 172 174 173 173 166 165 161 162 169 174 177 170 190 229 231 223 219 218 211 204 202 204 212 238 251 252 260 266 267 271 272 276 272 270 268 228 213 212 217 228 236 243 247
214 250 271 275 249 226 227 235 239 253 256 229 93 94 102 99 66 2 14 84 132 138 140 140 291 290 94 96 99 86 48 57 53 66 66 83 132 133 133 151 164 156 155 173 185 188 193 183 179 177 174 176 178 175 176 177 179 182 178 175 169 169 170 171 176 173 208 268 250 220 209 214 216 214 215 211 209 225 252 267 268 263 264 271 273 277 275 264 252 227 210 208 214 222 232 234 230
303 223 244 263 233 237 225 228 237 250 242 226 94 99 93 94 87 51 336 91 144 128 102 100 61 91 95 95 97 81 61 70 68 69 68 94 132 130 131 147 165 166 168 185 190 198 204 183 181 178 176 180 181 181 181 180 186 190 192 190 184 180 173 166 162 347 342 328 279 214 202 211 218 215 218 221 216 212 225 261 270 259 251 268 274 262 266 257 233 220 212 215 221 223 227 223 224
329 241 235 246 236 230 221 228 222 246 245 217 87 105 93 85 90 126 242 128 138 121 108 155 177 109 100 92 85 87 95 97 82 85 80 102 120 121 130 144 167 174 176 191 190 203 209 186 183 181 178 179 183 185 182 185 192 197 209 216 223 212 187 286 323 336 344 329 281 221 200 211 231 214 205 216 215 213 218 225 236 245 249 263 268 239 234 254 243 222 221 225 228 235 237 227 222
286 280 249 230 229 229 231 240 218 238 236 192 129 117 109 124 149 201 201 160 152 134 114 124 70 80 95 92 100 113 123 125 108 100 95 108 117 125 142 154 173 176 180 191 190 197 202 189 183 183 182 179 185 187 186 192 199 208 221 229 245 253 264 296 298 312 315 316 271 233 216 217 230 214 200 205 207 215 225 227 227 228 239 253 260 247 222 233 251 236 231 231 233 243 248 243 232
193 345 287 252 237 238 241 252 247 241 219 188 145 114 123 170 125 45 346 205 168 149 90 73 49 19 85 104 120 122 120 130 123 110 109 121 130 135 143 162 180 180 180 186 193 193 194 192 186 185 186 185 191 193 195 201 208 217 229 238 252 261 269 278 279 292 286 291 270 240 243 241 235 226 220 216 209 212 220 230 232 225 230 244 249 253 236 231 253 255 246 239 242 247 247 249 243
193 120 230 269 257 250 248 250 258 251 225 147 113 116 135 108 85 50 304 256 130 106 89 86 32 51 110 117 120 118 120 134 132 129 127 134 134 133 143 166 177 180 179 179 188 193 192 195 193 193 192 194 199 202 205 210 217 225 236 246 254 260 265 271 273 276 265 255 255 245 250 254 245 237 236 234 225 209 211 226 234 234 244 256 254 253 248 238 244 253 253 246 246 249 245 248 248
206 155 175 265 260 246 238 242 254 252 249 121 118 128 127 92 104 124 348 25 73 90 104 83 23 42 102 108 119 126 121 128 144 151 147 143 136 141 156 162 171 182 178 177 180 185 186 191 200 201 202 205 208 213 217 221 226 232 240 250 257 257 262 270 272 271 261 243 236 236 240 251 249 241 240 240 235 213 207 216 223 233 244 256 260 257 255 245 238 245 252 256 256 254 253 256 259
211 192 133 247 244 241 227 235 253 244 213 137 135 150 137 110 131 119 69 49 81 98 87 61 61 75 79 93 125 145 90 88 145 164 159 148 145 150 154 154 169 181 177 180 178 182 187 189 202 204 206 215 221 223 226 230 234 239 242 249 256 254 258 266 268 268 263 248 235 228 232 246 253 248 243 241 242 231 218 216 218 224 233 244 252 252 254 252 249 252 258 266 265 261 260 260 261
208 195 197 210 225 232 222 225 234 239 185 129 140 169 164 131 132 101 117 91 85 99 88 77 82 91 84 94 126 126 71 89 145 164 161 149 150 144 138 148 165 177 180 181 179 185 192 192 199 207 209 221 234 230 229 239 245 248 246 246 249 250 254 259 260 262 261 254 245 235 233 242 255 259 251 242 238 239 234 229 226 224 228 234 239 242 245 249 250 252 254 260 263 263 260 256 254
192 190 211 207 215 218 222 225 218 233 200 145 160 183 192 151 140 140 143 146 116 108 105 100 89 84 77 85 103 73 74 99 138 158 154 135 140 133 131 148 159 171 182 179 183 187 197 201 201 207 208 216 232 233 234 248 257 257 254 247 240 240 245 250 255 257 257 253 250 243 237 238 251 258 255 248 240 239 238 238 237 233 233 236 239 242 244 248 249 250 252 254 257 258 258 257 257
193 205 214 214 210 210 259 275 267 257 224 168 170 191 202 153 132 159 177 172 154 128 127 124 104 92 79 67 66 59 75 94 127 143 133 125 130 128 131 147 151 163 184 178 185 187 196 207 210 214 212 210 215 222 229 242 261 270 269 259 243 236 239 244 250 254 258 255 252 249 242 239 240 246 252 254 253 249 242 239 241 240 241 243 246 248 249 251 252 253 253 254 254 254 257 259 260
210 214 216 224 211 207 252 264 285 293 260 192 167 186 189 144 135 187 175 152 159 113 107 118 100 97 93 62 47 60 76 90 121 126 117 124 131 125 135 159 159 174 201 181 187 194 200 203 209 218 219 217 215 221 225 230 251 269 278 279 266 252 244 245 249 252 256 255 255 255 252 251 245 242 250 260 261 260 257 253 250 248 248 248 248 249 249 251 252 254 255 256 257 257 260 262 264
202 210 225 227 204 215 230 248 275 281 262 231 172 189 162 142 158 175 128 165 146 74 72 81 76 79 89 63 44 71 75 83 116 133 130 129 138 132 138 169 154 165 189 211 202 202 208 207 207 214 220 223 224 227 229 227 238 252 259 277 286 277 267 265 265 262 260 257 259 263 259 256 258 251 243 253 260 260 261 260 259 258 257 256 255 254 252 252 253 255 257 258 258 258 260 262 262
187 220 245 257 225 221 218 244 270 251 233 248 196 210 143 136 175 156 165 201 98 82 77 79 74 71 82 72 57 84 82 74 97 126 145 146 151 145 140 164 194 180 182 201 216 215 217 220 216 215 222 227 228 230 233 233 234 234 230 243 260 271 276 278 282 280 276 271 271 274 267 249 248 254 246 247 257 260 259 259 262 263 262 262 262 260 258 257 259 259 261 263 264 266 269 270 269
210 227 234 250 253 252 219 232 242 215 184 189 229 217 159 156 178 158 191 90 99 100 84 82 79 71 78 79 74 89 92 85 84 99 131 149 151 145 145 157 200 253 194 181 200 218 226 233 227 218 219 226 230 233 238 236 233 231 222 223 236 249 259 264 270 277 284 286 284 281 277 264 246 249 251 250 257 261 260 259 263 266 266 267 268 269 268 269 270 270 272 275 278 280 281 283 282
213 222 205 231 247 254 255 236 206 189 174 181 240 237 169 177 134 130 155 96 103 106 91 85 80 74 78 81 84 93 94 99 103 94 113 136 147 156 160 150 140 279 279 237 207 207 226 243 237 228 221 225 233 238 243 239 233 234 230 225 229 235 242 248 255 266 276 280 281 279 278 276 262 251 250 251 255 257 259 258 260 263 266 269 270 271 272 273 274 274 276 278 279 282 284 285 284
212 219 211 214 233 243 258 250 193 180 179 179 179 19 53 16 13 348 174 127 121 108 96 83 74 76 80 80 84 92 92 93 99 94 96 111 135 155 153 145 150 174 229 315 334 93 251 267 242 239 230 222 228 237 245 243 234 233 239 240 236 238 243 248 251 254 259 264 272 275 276 277 274 266 257 250 250 254 256 255 253 255 260 263 264 266 268 269 269 270 271 273 276 279 282 284 285
213 215 222 215 235 246 262 256 208 173 170 172 166 9 266 330 357 326 287 231 211 135 108 88 71 85 86 80 85 91 92 92 89 84 80 80 84 96 96 104 136 151 155 241 335 357 289 278 256 253 250 229 222 231 238 240 240 237 240 249 252 251 253 255 255 253 252 254 260 266 271 273 274 274 270 265 262 262 263 259 255 253 253 256 256 259 264 266 267 267 268 269 271 273 277 280 282
217 218 229 227 235 248 276 271 235 186 179 178 176 192 217 263 314 267 274 256 233 236 198 128 87 107 99 81 86 89 87 89 92 93 83 67 61 61 47 33 54 64 104 166 202 340 292 283 275 277 286 265 239 233 234 231 241 250 242 248 264 269 268 267 265 260 253 249 252 257 263 267 271 272 274 274 271 269 272 270 266 262 259 257 255 255 257 260 264 266 266 266 266 268 272 273 276
252 217 232 232 228 227 234 280 255 205 187 183 179 190 202 223 243 222 237 211 115 185 161 124 110 111 109 94 90 86 80 83 88 89 82 76 77 72 71 61 52 47 33 61 165 221 256 285 291 290 293 286 275 261 247 236 233 244 237 232 247 258 268 275 274 272 266 255 252 254 257 261 267 269 269 269 264 263 269 271 271 271 270 266 262 260 258 258 261 264 266 266 267 270 272 272 273
254 230 229 231 228 226 212 252 259 223 196 186 170 183 211 209 215 215 225 214 126 166 156 121 112 100 108 111 99 85 77 77 76 75 71 69 74 67 70 81 80 79 66 48 38 46 268 295 293 285 286 287 291 292 279 262 249 251 248 238 241 245 252 262 266 268 272 268 259 259 266 267 269 270 268 266 260 258 263 268 270 269 270 272 272 271 267 263 262 264 267 268 270 272 274 275 274
214 222 218 220 223 235 206 219 250 236 215 188 161 199 228 212 211 206 214 215 201 205 210 203 171 120 119 112 98 88 79 74 69 67 66 63 64 62 59 62 70 86 90 73 47 33 30 351 321 305 291 280 280 289 289 280 276 275 276 270 259 251 250 257 263 263 265 266 259 255 261 268 273 275 274 271 264 258 260 265 267 267 268 270 272 273 272 270 269 269 268 268 269 271 274 276 276
172 178 209 204 209 227 192 194 226 231 214 181 163 237 234 205 212 200 200 205 206 207 215 217 199 175 144 120 104 92 81 74 70 66 66 65 63 65 64 60 59 70 85 90 76 55 41 6 347 347 318 295 282 283 283 274 268 265 267 271 271 267 263 264 267 267 267 267 266 260 253 255 264 270 272 271 268 264 261 262 266 270 272 272 270 270 272 274 274 274 273 272 273 273 275 277 278
167 175 192 193 209 216 179 183 190 197 215 180 170 239 215 56 86 165 179 184 188 191 202 207 192 183 157 131 110 92 78 73 74 72 72 73 71 74 78 75 70 74 89 104 111 107 92 82 63 55 0 298 293 297 300 291 277 264 260 264 268 270 271 272 274 276 277 276 277 276 269 263 263 265 268 268 269 268 264 263 265 268 272 275 276 274 275 277 277 278 279 278 278 277 277 279 280
200 195 180 176 201 197 172 180 177 184 213 186 183 212 165 133 81 116 148 158 162 157 160 175 139 130 119 105 87 77 73 69 69 69 74 79 81 85 90 89 84 81 87 97 117 129 121 119 117 104 107 115 165 270 295 301 298 286 275 270 268 271 274 276 278 280 282 284 283 284 286 285 281 278 276 274 273 272 269 265 262 261 263 266 270 272 275 276 277 278 279 277 277 277 278 279 280
197 200 187 174 189 182 160 171 179 190 204 182 191 218 116 123 113 118 136 147 144 135 128 90 85 91 91 84 72 66 67 64 60 61 71 80 84 87 91 92 88 81 79 84 103 129 131 121 110 112 114 107 109 126 144 298 306 303 299 291 281 280 283 284 287 288 286 285 283 282 286 289 290 289 287 283 279 277 275 273 269 265 261 257 259 263 266 270 273 275 275 275 277 277 278 279 279
189 187 182 166 181 196 175 167 176 181 189 177 183 207 149 123 127 133 139 141 128 120 106 81 84 88 87 83 75 68 64 60 57 60 67 72 75 76 79 80 77 75 75 76 84 112 138 137 125 127 128 118 116 119 121 113 80 352 347 337 328 322 316 317 319 318 311 303 296 289 285 283 284 287 289 289 287 283 279 277 276 276 272 266 262 261 262 266 270 273 274 275 277 278 278 279 279
186 178 163 152 173 207 200 179 173 165 165 187 181 197 190 138 117 134 141 136 124 121 100 85 89 89 85 84 78 72 66 60 60 64 68 69 71 71 72 73 72 73 74 73 73 80 99 117 141 158 147 139 142 136 132 127 124 94 42 7 354 351 343 339 336 334 333 328 322 311 301 294 289 287 287 289 291 291 289 286 283 280 278 277 275 273 271 269 270 271 274 277 278 278 278 278 278
175 163 155 162 179 193 195 179 165 166 161 200 180 176 223 173 128 140 134 124 115 108 95 88 89 85 84 85 81 76 70 65 65 66 69 72 73 75 75 74 74 73 72 70 67 64 68 73 81 89 94 160 183 160 135 110 109 106 92 104 296 329 336 338 336 338 342 344 345 340 331 322 311 302 294 291 290 291 294 296 295 290 285 281 280 281 282 281 278 275 275 277 278 277 279 280 281
97 149 164 170 184 178 186 170 153 171 181 202 170 159 232 212 65 53 70 73 56 76 91 91 90 86 85 85 81 78 72 67 68 67 68 72 74 75 76 75 73 71 70 69 66 63 63 64 63 61 56 60 81 117 224 306 46 67 61 237 211 205 336 342 334 339 340 340 353 359 352 341 330 322 313 304 298 296 296 297 298 297 292 287 285 285 286 286 283 281 279 276 274 275 278 280 280
110 148 170 164 172 121 107 140 144 173 198 194 171 175 191 62 52 42 52 66 59 66 82 87 88 84 79 79 76 74 71 66 66 67 68 71 73 74 75 74 72 72 72 70 68 65 63 63 62 60 58 58 62 67 75 71 66 79 188 251 241 162 155 183 227 240 266 294 340 3 2 1 353 341 334 324 312 305 302 299 298 298 296 293 292 291 290 289 286 285 284 280 276 276 277 277 275
165 145 147 159 167 158 134 145 149 154 211 165 159 168 140 79 66 48 53 77 76 72 75 76 78 77 73 73 73 70 68 64 64 66 67 69 72 72 72 72 71 71 71 69 67 64 63 64 63 62 60 59 60 64 69 71 81 135 186 197 199 198 191 202 212 216 233 273 297 304 320 342 348 344 342 336 326 318 310 304 300 299 299 297 297 296 296 294 291 286 284 283 281 279 277 276 275
184 150 126 143 156 147 103 135 140 121 20 49 124 129 89 68 70 55 47 73 79 76 75 71 71 74 73 72 71 69 67 65 64 64 65 67 68 69 69 69 70 69 67 66 66 64 63 64 64 63 62 61 61 60 63 66 75 92 123 178 193 206 222 239 246 277 318 320 313 308 298 299 306 313 318 320 323 321 313 306 300 297 296 296 297 297 296 296 294 290 285 282 281 280 280 280 279
185 162 143 146 140 113 106 132 137 125 56 340 139 138 88 52 62 61 44 65 70 68 71 70 68 70 70 69 68 68 67 65 66 65 65 66 66 66 67 67 67 67 64 63 64 64 63 62 63 62 61 61 60 58 57 59 59 59 60 61 53 41 31 22 17 12 10 8 0 351 326 305 301 298 297 302 307 310 311 308 301 297 297 298 300 299 298 296 296 295 290 285 281 279 281 283 282
175 159 140 146 141 122 126 136 136 144 145 335 286 144 110 61 59 64 62 70 67 63 66 67 68 67 65 66 65 65 64 62 64 64 63 64 63 63 63 62 63 63 62 61 62 61 60 59 59 59 58 57 57 55 54 55 55 55 55 54 51 46 43 38 33 26 22 21 16 7 356 337 315 301 299 304 301 303 312 314 306 300 297 297 298 301 302 300 299 299 294 289 285 282 280 278 279
153 147 133 139 136 120 116 103 89 121 110 39 341 68 112 91 78 84 83 78 69 59 62 63 65 66 66 65 63 63 62 60 61 62 62 61 60 60 60 59 60 60 59 58 57 57 55 54 53 54 54 53 52 51 51 51 52 53 53 53 50 48 45 40 34 29 24 20 16 12 7 2 342 318 311 310 307 306 310 312 310 307 301 294 290 291 296 299 299 298 293 287 283 281 278 278 278
144 155 137 129 123 116 110 97 96 54 61 78 345 19 102 104 95 102 84 83 78 66 64 65 65 66 67 66 64 63 63 63 64 64 63 61 60 59 58 57 57 56 55 54 53 52 51 50 49 49 49 48 46 46 46 47 46 46 46 45 44 43 41 37 32 28 24 19 17 14 7 0 349 331 320 315 312 313 315 314 310 306 302 299 293 286 284 287 291 293 293 291 287 281 278 279 279
128 147 127 108 109 116 116 108 120 104 51 133 60 7 93 107 92 89 73 84 90 85 74 70 69 69 69 68 67 66 66 67 66 64 62 60 58 57 55 55 54 51 50 50 49 47 46 45 43 43 43 41 40 39 39 40 39 39 38 36 35 33 31 28 25 23 20 17 14 13 10 4 357 346 335 326 319 319 322 321 318 315 311 305 298 290 284 283 286 289 292 292 289 285 282 281 279
112 122 110 103 90 87 106 114 129 111 57 134 118 58 65 93 58 34 76 92 97 101 92 81 76 73 71 70 69 68 68 67 65 63 61 59 57 54 53 52 50 48 46 45 44 41 40 38 36 36 37 35 33 32 31 31 31 30 29 28 26 24 21 18 15 15 13 11 9 8 7 4 0 355 346 334 324 319 320 321 320 320 319 314 306 299 294 290 287 288 290 290 289 286 283 281 277
109 123 127 107 67 25 59 39 58 110 119 129 112 79 59 84 57 21 65 96 101 100 97 91 83 77 74 72 71 70 68 66 63 59 57 54 52 50 49 47 45 44 42 40 39 36 34 33 30 29 29 27 26 25 24 24 22 22 21 19 18 16 14 11 10 8 6 5 4 2 0 358 357 354 347 336 326 320 318 319 320 319 318 317 316 311 304 295 288 286 286 287 289 289 286 284 281
105 141 143 112 106 100 91 139 115 80 71 125 126 92 61 71 65 43 61 78 88 91 93 94 90 85 80 76 73 70 67 64 59 55 52 49 47 45 43 42 40 38 37 35 34 32 30 28 25 24 23 21 19 17 17 16 15 14 13 11 10 9 7 6 4 3 1 359 358 356 355 353 352 351 349 345 339 331 325 323 324 325 324 322 320 318 312 305 296 290 287 285 286 289 289 288 286
116 150 162 135 131 133 150 158 145 81 65 146 142 95 86 111 79 67 79 80 85 90 91 93 92 90 86 81 76 69 64 60 56 52 49 45 43 41 39 38 36 34 33 31 29 28 25 24 21 20 18 16 13 12 11 10 9 8 6 5 4 2 1 0 358 357 355 353 352 351 350 348 347 347 346 346 344 341 337 332 329 329 328 326 322 319 316 312 307 299 294 291 288 287 288 289 290
131 203 233 123 127 130 149 161 148 119 108 151 147 59 100 140 109 99 102 95 93 94 95 96 92 90 87 81 74 68 62 58 53 48 45 42 39 37 34 33 31 30 28 26 25 23 21 20 17 15 14 12 9 8 6 5 5 4 2 0 359 358 357 355 354 352 350 349 347 346 344 343 342 341 340 339 338 338 336 334 332 330 327 326 324 321 317 314 312 307 303 299 294 291 287 284 286
180 264 0 48 239 172 129 148 134 128 110 85 72 40 71 103 103 115 111 103 101 100 101 99 93 89 86 78 70 66 62 57 52 46 42 38 35 32 30 27 26 25 23 21 20 18 16 15 13 12 10 8 6 5 3 2 1 359 358 356 356 355 353 351 350 349 347 346 344 342 341 339 338 335 333 332 331 330 330 329 328 327 325 324 323 321 320 317 314 311 309 306 302 298 293 286 282
253 54 46 29 226 157 106 58 111 121 109 89 95 96 110 104 109 136 126 113 111 108 105 101 96 92 83 76 71 66 63 57 51 45 41 35 31 29 26 24 21 20 19 17 15 13 12 11 10 9 7 6 5 3 2 0 358 357 355 354 353 351 350 349 347 346 344 343 341 339 337 335 334 333 330 328 326 325 324 323 322 321 321 321 320 319 319 317 316 313 311 309 307 305 301 297 291
83 105 304 296 337 33 95 90 90 101 90 95 118 135 152 166 149 148 143 131 126 121 114 110 105 99 89 82 77 69 64 59 50 44 39 33 29 25 22 20 19 17 16 14 12 10 9 9 8 8 6 5 4 3 1 360 358 357 355 353 352 350 349 347 345 343 341 339 338 337 335 334 332 331 329 328 326 323 322 320 319 318 317 316 316 316 315 315 314 313 312 310 308 307 304 301 299
58 142 216 48 60 11 27 97 123 145 113 108 126 136 155 200 151 151 158 146 138 133 124 122 117 110 106 95 84 75 66 59 51 44 37 32 27 22 18 16 15 14 13 11 10 8 6 5 5 6 6 5 4 2 -0 359 357 356 355 353 351 349 348 346 344 342 340 338 336 334 333 332 330 329 328 327 326 325 323 321 320 318 317 316 315 314 313 312 311 311 311 309 307 306 304 302 301
354 57 32 48 112 121 58 85 123 136 124 121 134 144 165 266 157 155 157 150 144 143 134 129 124 115 110 101 91 80 68 62 54 46 39 30 25 20 14 13 12 10 10 9 8 6 4 1 1 3 3 3 3 1 360 359 358 356 355 353 351 349 347 345 343 341 339 338 336 335 333 331 329 329 327 326 326 325 324 322 321 320 319 318 317 315 314 312 311 310 309 308 307 305 303 303 302
351 27 27 5 8 108 88 38 62 99 104 120 130 150 169 335 145 143 140 139 140 138 133 128 122 115 109 101 95 85 75 68 57 47 38 26 22 18 13 11 9 7 7 7 6 5 2 358 357 358 -0 1 1 1 0 359 357 356 355 353 352 351 348 346 344 342 340 339 336 335 334 331 330 329 328 326 326 325 324 323 322 321 320 320 318 318 316 314 312 311 310 308 306 304 302 303 302
11 48 29 351 9 54 77 38 16 62 90 129 132 148 192 354 38 96 110 112 117 124 125 122 120 119 115 108 101 92 82 72 58 46 32 21 18 14 10 10 7 4 4 4 4 3 1 356 353 353 356 358 358 358 358 357 355 354 353 352 350 349 348 346 344 343 342 341 339 337 335 333 331 330 329 328 327 326 325 324 323 322 321 321 320 319 318 317 315 313 312 311 307 305 304 304 302